sat.trackr.live / text

‹ back to catalog

STARLINK-35662

NORAD 66384 · 2025-257E

PAYLOAD ACTIVE UNKNOWN

§ Identity

Operator
Country
US
Launch date
2025-11-09
Launch site
AFETR
Launch vehicle
Mass (kg)
RCS (m²)

Purposes: comms

External: N2YO · Heavens-Above · Gunter

§ Orbital elements

Epoch: 2026-09-20T14:36:38.804544Z

Period
93.85 min
Inclination
53.1599°
Eccentricity
0.0001058
Mean motion
15.34413165 rev/d
Perigee alt
461.9 km
Apogee alt
463.4 km
Semi-major
6,840.8 km
B*
7.9919e-4
RAAN
29.0130°
Arg perigee
73.9944°
Mean anomaly
286.1175°
Rev number
4,961

§ Raw data

STARLINK-356621 66384U 25257E   26263.60878246  .00026733  00000+0  79919-3 0  99962 66384  53.1599  29.0130 0001058  73.9944 286.1175 15.34413165 49619

JSON: /api/v1/satellites/66384 · /tle

For live sub-satellite position, see the globe view (requires WebGL).

§ Visibility from observer

Set your observer location to see the next 7 days of passes ≥ 10°. The values pass through the URL so the page stays shareable.

No JS? Fill the form by hand. The geolocation button needs JavaScript.